NOTL Irvine Rd

*Note: All times are displayed in the local standard time of the station location.
**Rain - Equipment is designed to accurately record liquid precipitation; under conditions when precipitation is not in liquid form, the data displayed may not properly reflect rainfall values.

Date Max Temp
(°C)
Min Temp
(°C)
Avg Temp
(°C)
Rain (mm) Avg RH (%)
Fri, Feb 15, 2019 5.2 -4.0 1.0 1.6 72.2
Thu, Feb 14, 2019 3.8 -4.2 -0.6 0.0 67.3
Wed, Feb 13, 2019 1.1 -4.7 -2.4 0.0 74.5
Tue, Feb 12, 2019 2.2 -5.3 -2.4 0.2 84.9
Mon, Feb 11, 2019 -2.3 -5.1 -3.5 0.0 72.7
Sun, Feb 10, 2019 -3.2 -8.5 -5.6 0.0 66.9
Sat, Feb 09, 2019 -4.2 -9.4 -6.6 0.0 61.5
DateTime Avg Temp (°C) Rain (mm) RH (%)
Sat, Feb 16, 2019 16:00 -2.4 0.0 58.6
Sat, Feb 16, 2019 15:00 -2.8 0.0 60.6
Sat, Feb 16, 2019 14:00 -3.0 0.0 61.2
Sat, Feb 16, 2019 13:00 -3.5 0.0 63.0
Sat, Feb 16, 2019 12:00 -3.8 0.0 63.4
Sat, Feb 16, 2019 11:00 -3.7 0.0 63.5
Sat, Feb 16, 2019 10:00 -3.8 0.0 62.3
Sat, Feb 16, 2019 09:00 -3.9 0.0 62.7
Sat, Feb 16, 2019 08:00 -4.2 0.0 64.2
Sat, Feb 16, 2019 07:00 -3.9 0.0 62.9
Sat, Feb 16, 2019 06:00 -3.2 0.0 63.6
Sat, Feb 16, 2019 05:00 -2.9 0.0 71.4
Sat, Feb 16, 2019 04:00 -3.4 0.0 75.9
Sat, Feb 16, 2019 03:00 -3.6 0.0 74.7
Sat, Feb 16, 2019 02:00 -3.6 0.0 71.7
Sat, Feb 16, 2019 01:00 -3.8 0.0 70.2
Sat, Feb 16, 2019 00:00 -3.9 0.0 68.3
Fri, Feb 15, 2019 23:00 -3.9 0.0 67.3
Fri, Feb 15, 2019 22:00 -3.6 0.0 66.1
Fri, Feb 15, 2019 21:00 -3.0 0.0 63.4
Fri, Feb 15, 2019 20:00 -2.2 0.0 65.8
Fri, Feb 15, 2019 19:00 -1.8 0.0 64.4
Fri, Feb 15, 2019 18:00 -1.4 0.0 64.5
Fri, Feb 15, 2019 17:00 -0.6 0.0 64.9
Fri, Feb 15, 2019 16:00 -0.2 0.0 67.2
Fri, Feb 15, 2019 15:00 0.2 0.0 69.9
Fri, Feb 15, 2019 14:00 1.2 0.0 66.9
Fri, Feb 15, 2019 13:00 2.2 0.0 60.3
Fri, Feb 15, 2019 12:00 2.6 0.0 66.5
Fri, Feb 15, 2019 11:00 2.9 0.0 75.7
Fri, Feb 15, 2019 10:00 3.9 0.0 82.5
Fri, Feb 15, 2019 09:00 3.9 0.0 86.4
Fri, Feb 15, 2019 08:00 4.4 0.0 86.1
Fri, Feb 15, 2019 07:00 4.1 0.2 88.9
Fri, Feb 15, 2019 06:00 4.0 0.8 87.9
Fri, Feb 15, 2019 05:00 3.8 0.4 85.5
Fri, Feb 15, 2019 04:00 4.7 0.0 71.6
Fri, Feb 15, 2019 03:00 2.7 0.2 73.5
Fri, Feb 15, 2019 02:00 2.0 0.0 73.6
Fri, Feb 15, 2019 01:00 3.1 0.0 65.3
Fri, Feb 15, 2019 00:00 3.1 0.0 62.1
Thu, Feb 14, 2019 23:00 3.3 0.0 60.8
Thu, Feb 14, 2019 22:00 1.7 0.0 69.2
Thu, Feb 14, 2019 21:00 0.8 0.0 70.8
Thu, Feb 14, 2019 20:00 0.5 0.0 68.2
Thu, Feb 14, 2019 19:00 1.0 0.0 63.3
Thu, Feb 14, 2019 18:00 1.3 0.0 61.2
Thu, Feb 14, 2019 17:00 1.3 0.0 64.7


asterix Register now to access more data! asterix